Location: Auckland
(36.8670°S, 174.7670°E)
Time: 12:02:01
(UTC+13:00)

Cosmos 2219 Rocket - Visible Passes

Search period start: 13 November 2019 00:00
Search period end: 23 November 2019 00:00
Orbit: 828 x 846 km, 71.0° (Epoch: 11 November)

Date Brightness Start Highest point End Pass type
(mag) Time Alt. Az. Time Alt. Az. Time Alt. Az.
13 Nov 2.8 20:41:08 10° S 20:46:29 41° ESE 20:51:38 11° NE visible
13 Nov 4.0 22:25:40 10° SW 22:30:08 24° W 22:33:23 15° NW visible
14 Nov 3.9 22:09:09 10° SW 22:13:47 27° WNW 22:17:56 12° NNW visible
15 Nov 3.8 21:52:40 10° SW 21:57:26 29° WNW 22:02:11 10° NNW visible
16 Nov 3.7 21:36:10 10° SW 21:41:06 32° WNW 21:45:58 10° NNW visible
17 Nov 3.6 21:19:41 10° SW 21:24:45 34° WNW 21:29:44 10° NNW visible
18 Nov 3.6 21:03:14 10° SW 21:08:23 37° WNW 21:13:29 10° N visible
19 Nov 3.5 20:46:46 10° SW 20:52:02 41° WNW 20:57:13 10° N visible
